TimeCST,TemperatureF,Dew PointF,Humidity,Sea Level PressureIn,VisibilityMPH,Wind Direction,Wind SpeedMPH,Gust SpeedMPH,PrecipitationIn,Events,Conditions,WindDirDegrees,DateUTC
12:53 AM,12.9,10.0,88,29.99,10.0,South,13.8,-,N/A,,Clear,170,2013-02-26 06:53:00
1:53 AM,12.9,10.0,88,30.00,8.0,South,13.8,-,N/A,,Clear,170,2013-02-26 07:53:00
2:10 AM,12.2,10.4,92,29.95,2.5,South,15.0,-,N/A,,Scattered Clouds,170,2013-02-26 08:10:00
2:18 AM,12.2,10.4,92,29.95,3.0,South,13.8,-,N/A,,Scattered Clouds,170,2013-02-26 08:18:00
2:31 AM,12.2,10.4,92,29.95,2.5,South,16.1,-,N/A,,Mostly Cloudy,170,2013-02-26 08:31:00
2:42 AM,12.2,10.4,92,29.96,1.5,South,17.3,-,N/A,,Mostly Cloudy,170,2013-02-26 08:42:00
2:53 AM,14.0,12.0,92,30.01,1.2,South,19.6,-,N/A,,Overcast,180,2013-02-26 08:53:00
3:09 AM,14.0,12.2,93,29.95,2.5,South,16.1,-,N/A,,Overcast,180,2013-02-26 09:09:00
3:16 AM,14.0,12.2,93,29.95,4.0,South,16.1,-,N/A,,Overcast,180,2013-02-26 09:16:00
3:51 AM,14.0,12.2,93,29.96,2.0,South,17.3,-,N/A,,Overcast,180,2013-02-26 09:51:00
3:53 AM,14.0,12.0,92,30.01,2.5,South,16.1,-,N/A,,Overcast,180,2013-02-26 09:53:00
4:02 AM,14.0,12.2,93,29.95,4.0,South,15.0,-,N/A,,Overcast,180,2013-02-26 10:02:00
4:53 AM,14.0,12.9,95,30.02,3.0,South,16.1,-,N/A,,Overcast,180,2013-02-26 10:53:00
5:02 AM,14.0,12.2,93,29.97,2.5,South,16.1,-,N/A,,Overcast,180,2013-02-26 11:02:00
5:28 AM,15.8,12.2,86,29.98,3.0,South,17.3,-,N/A,,Overcast,190,2013-02-26 11:28:00
5:53 AM,15.1,12.9,91,30.04,3.0,South,11.5,-,N/A,,Overcast,180,2013-02-26 11:53:00
6:25 AM,15.8,12.2,86,29.99,1.0,South,13.8,-,N/A,,Overcast,180,2013-02-26 12:25:00
6:53 AM,15.1,12.9,91,30.04,1.0,South,13.8,-,N/A,,Overcast,170,2013-02-26 12:53:00
7:01 AM,15.8,12.2,86,29.98,0.5,South,13.8,-,N/A,Fog,Light Freezing Fog,180,2013-02-26 13:01:00
7:26 AM,15.8,12.2,86,29.97,0.2,South,10.4,-,N/A,Fog,Light Freezing Fog,170,2013-02-26 13:26:00
7:53 AM,15.1,12.9,91,30.03,0.2,South,8.1,-,N/A,Fog,Light Freezing Fog,170,2013-02-26 13:53:00
8:53 AM,15.8,14.0,93,29.99,0.2,South,11.5,-,N/A,Fog,Light Freezing Fog,180,2013-02-26 14:53:00
9:53 AM,16.0,14.0,92,30.05,0.2,South,6.9,-,N/A,Fog,Light Freezing Fog,170,2013-02-26 15:53:00
10:21 AM,15.8,14.0,93,30.00,0.5,South,10.4,-,N/A,Fog,Light Freezing Fog,180,2013-02-26 16:21:00
10:53 AM,16.0,15.1,96,30.06,1.0,South,9.2,-,N/A,,Overcast,170,2013-02-26 16:53:00
11:00 AM,15.8,15.8,100,30.01,2.0,South,9.2,-,N/A,,Overcast,180,2013-02-26 17:00:00
11:53 AM,17.1,15.1,92,30.08,3.0,South,11.5,-,N/A,,Overcast,170,2013-02-26 17:53:00
12:53 PM,19.0,17.1,92,30.08,3.0,South,9.2,-,N/A,,Overcast,170,2013-02-26 18:53:00
1:53 PM,19.9,17.1,89,30.06,4.0,SSE,9.2,-,N/A,,Overcast,160,2013-02-26 19:53:00
2:53 PM,19.9,17.1,89,30.07,5.0,South,8.1,-,N/A,,Mostly Cloudy,180,2013-02-26 20:53:00
3:53 PM,19.9,17.1,89,30.08,5.0,South,6.9,-,N/A,,Mostly Cloudy,170,2013-02-26 21:53:00
4:26 PM,19.4,17.6,93,30.02,6.0,SE,3.5,-,N/A,,Scattered Clouds,140,2013-02-26 22:26:00
4:53 PM,19.9,17.1,89,30.08,6.0,SSE,4.6,-,N/A,,Mostly Cloudy,160,2013-02-26 22:53:00
5:53 PM,19.0,16.0,88,30.09,10.0,SSE,3.5,-,N/A,,Mostly Cloudy,150,2013-02-26 23:53:00
6:53 PM,17.1,15.1,92,30.10,8.0,SSE,5.8,-,N/A,,Mostly Cloudy,150,2013-02-27 00:53:00
7:53 PM,16.0,14.0,92,30.11,6.0,SSE,3.5,-,N/A,,Mostly Cloudy,150,2013-02-27 01:53:00
8:06 PM,15.8,14.0,93,30.05,1.0,SE,3.5,-,N/A,,Mostly Cloudy,140,2013-02-27 02:06:00
8:17 PM,15.8,14.0,93,30.05,0.5,SSE,4.6,-,N/A,,Mist,150,2013-02-27 02:17:00
8:25 PM,15.8,12.2,86,30.05,0.1,SE,3.5,-,N/A,Fog,Light Freezing Fog,140,2013-02-27 02:25:00
8:53 PM,12.0,10.9,95,30.12,0.5,South,4.6,-,N/A,Fog,Light Freezing Fog,170,2013-02-27 02:53:00
9:00 PM,12.2,10.4,92,30.06,0.2,South,4.6,-,N/A,Fog,Light Freezing Fog,180,2013-02-27 03:00:00
9:53 PM,12.9,10.9,92,30.12,0.5,Calm,Calm,-,N/A,Fog,Light Freezing Fog,0,2013-02-27 03:53:00
10:46 PM,12.2,10.4,92,30.06,0.2,SSE,3.5,-,N/A,Fog,Light Freezing Fog,160,2013-02-27 04:46:00
10:53 PM,10.0,8.1,92,30.12,0.5,Calm,Calm,-,N/A,Fog,Light Freezing Fog,0,2013-02-27 04:53:00
11:09 PM,12.2,8.6,85,30.07,1.5,Calm,Calm,-,N/A,,Overcast,0,2013-02-27 05:09:00
11:22 PM,10.4,8.6,92,30.07,2.0,Calm,Calm,-,N/A,,Scattered Clouds,0,2013-02-27 05:22:00
11:32 PM,8.6,6.8,92,30.07,4.0,NNW,3.5,-,N/A,,Mostly Cloudy,340,2013-02-27 05:32:00
11:53 PM,8.1,3.9,83,30.13,7.0,North,3.5,-,N/A,,Mostly Cloudy,350,2013-02-27 05:53:00